Park Rapids, MN

4:37 AM CDT on April 22, 2018 (GMT -0500)
Park Rapids Municipal

Weather History for KPKD - March, 2013

Change the Weather History Date:

Monday, March 11, 2013

  Actual Average Record
Temperature  
Mean Temperature 14 °F -  
Max Temperature 28 °F 35 °F 63 °F (2016)
Min Temperature 3 °F 11 °F -21 °F (1980)
Degree Days  
Heating Degree Days 50    
Moisture  
Dew Point 8 °F    
Average Humidity 77    
Maximum Humidity 92    
Minimum Humidity 55    
Precipitation  
Precipitation 0.00 in - - ()
Sea Level Pressure  
Sea Level Pressure 29.90 in    
Wind  
Wind Speed 6 mph (NNW)    
Max Wind Speed 13 mph    
Max Gust Speed -    
Visibility 10 miles    
Events      
Averages and records for this station are not official NWS values.
T = Trace of Precipitation, MM = Missing Value Source: NWS Daily Summary

Daily Weather History Graph

Daily Weather History Graph

Search for Another Location

Airport or City:

Astronomy

Mar. 11, 2013 Rise Set
Actual Time 7:40 AM CDT 7:20 PM CDT
Civil Twilight 7:10 AM CDT 7:51 PM CDT
Nautical Twilight 6:34 AM CDT 8:26 PM CDT
Astronomical Twilight 5:59 AM CDT 9:02 PM CDT
Moon 7:12 AM CDT (3/11) 7:37 PM CDT (3/11)
Length of Visible Light 12h 40m
Length of Day
11h 40m
Waning Crescent, 0% of the Moon is Illuminated
Mar 11
Waning Crescent
Mar 11
New
Mar 19
First Quarter
Mar 27
Full
Apr 2
Last Quarter

Hourly Weather History & Observations

Time (CDT) Temp. Windchill Dew Point Humidity Pressure Visibility Wind Dir Wind Speed Gust Speed Precip Events Conditions
12:53 AM 12.9 °F 0.7 °F 7.0 °F 77% 30.06 in 10.0 mi North 9.2 mph - N/A   Clear
1:53 AM 10.9 °F 1.4 °F 5.0 °F 77% 30.04 in 10.0 mi North 5.8 mph - N/A   Clear
2:53 AM 3.9 °F -6.9 °F 1.0 °F 88% 30.03 in 10.0 mi North 5.8 mph - N/A   Clear
3:53 AM 6.1 °F -5.6 °F 3.0 °F 87% 29.99 in 10.0 mi North 6.9 mph - N/A   Clear
4:53 AM 6.8 °F -2.0 °F 3.2 °F 85% 29.89 in 10.0 mi NNW 4.6 mph - N/A   Clear
5:53 AM 8.1 °F -2.0 °F 3.9 °F 83% 29.97 in 10.0 mi North 5.8 mph - N/A   Clear
6:53 AM 7.0 °F -4.5 °F 3.9 °F 87% 29.96 in 10.0 mi North 6.9 mph - N/A   Clear
7:13 AM 6.8 °F -3.5 °F 3.2 °F 85% 29.87 in 10.0 mi North 5.8 mph - N/A   Mostly Cloudy
7:53 AM 3.9 °F -3.4 °F -0.0 °F 84% 29.96 in 10.0 mi NW 3.5 mph - N/A   Overcast
8:12 AM 3.2 °F -4.2 °F 1.4 °F 92% 29.86 in 10.0 mi NW 3.5 mph - N/A   Partly Cloudy
8:53 AM 3.9 °F -5.3 °F 1.9 °F 91% 29.95 in 10.0 mi North 4.6 mph - N/A   Clear
9:53 AM 10.9 °F - 8.1 °F 88% 29.94 in 10.0 mi Calm Calm - N/A   Scattered Clouds
10:01 AM 10.4 °F 2.2 °F 8.6 °F 92% 29.84 in 10.0 mi NNW 4.6 mph - N/A   Mostly Cloudy
10:53 AM 18.0 °F 8.7 °F 12.0 °F 78% 29.92 in 10.0 mi North 6.9 mph - N/A   Mostly Cloudy
11:12 AM 19.4 °F 11.5 °F 12.2 °F 74% 29.83 in 10.0 mi North 5.8 mph - N/A   Mostly Cloudy
11:53 AM 19.9 °F 13.4 °F 12.9 °F 74% 29.91 in 10.0 mi North 4.6 mph - N/A   Overcast
12:53 PM 21.9 °F 15.7 °F 14.0 °F 72% 29.89 in 10.0 mi North 4.6 mph - N/A   Overcast
1:53 PM 23.0 °F 18.4 °F 14.0 °F 68% 29.87 in 10.0 mi NNW 3.5 mph - N/A   Overcast
2:53 PM 25.0 °F 17.1 °F 12.0 °F 58% 29.85 in 10.0 mi NNW 6.9 mph - N/A   Overcast
3:53 PM 26.1 °F 18.4 °F 12.0 °F 55% 29.83 in 10.0 mi NW 6.9 mph - N/A   Partly Cloudy
4:53 PM 26.1 °F 21.9 °F 12.0 °F 55% 29.83 in 10.0 mi WNW 3.5 mph - N/A   Scattered Clouds
5:53 PM 24.1 °F 12.5 °F 14.0 °F 65% 29.83 in 10.0 mi West 12.7 mph - N/A   Clear
6:53 PM 21.0 °F 12.4 °F 12.0 °F 68% 29.85 in 10.0 mi WNW 6.9 mph - N/A   Overcast
7:53 PM 15.1 °F 4.2 °F 7.0 °F 70% 29.87 in 10.0 mi WNW 8.1 mph - N/A   Mostly Cloudy
8:53 PM 18.0 °F 7.7 °F 9.0 °F 68% 29.87 in 10.0 mi WNW 8.1 mph - N/A   Overcast
9:53 PM 17.1 °F 8.7 °F 10.0 °F 74% 29.87 in 10.0 mi WNW 5.8 mph - N/A   Overcast
10:53 PM 17.6 °F 9.3 °F 10.4 °F 73% 29.78 in 10.0 mi NW 5.8 mph - N/A   Overcast
11:53 PM 17.1 °F 7.6 °F 12.0 °F 81% 29.87 in 10.0 mi WNW 6.9 mph - N/A   Overcast